Miscellaneous Local Product
Issued by NWS Hastings, NE

Home | Current Version | Previous Version | Text Only | Print | Product List | Glossary Off
Versions: 1 2 3 4 5 6 7 8 9 10 11 12 13 14 15 16 17 18 19 20 21 22 23 24 25 26 27 28 29 30 31 32 33 34 35 36 37 38 39 40 41 42 43 44 45 46 47 48 49 50

000
AXUS43 KGID 050802
MISGRI

GID CWA HOURLY WEATHER ROUNDUP
NATIONAL WEATHER SERVICE HASTINGS NE
200 AM CST THU MAR 05 2015

NOTE: "FAIR" INDICATES FEW OR NO CLOUDS BELOW 12,000 FEET WITH NO
SIGNIFICANT WEATHER AND/OR OBSTRUCTIONS TO VISIBILITY.

...SOUTH CENTRAL NEBRASKA...

CITY           SKY/WX    TMP DP  RH WIND       PRES   REMARKS
GRAND ISLAND   CLEAR      6  -2  69 CALM      30.45R
HASTINGS       CLEAR      5  -3  69 CALM      30.42R
KEARNEY        CLEAR      9   0  66 CALM      30.41R
ORD            CLEAR     -1  -8  72 SW5       30.40R WCI -11
YORK           CLEAR      7   0  72 CALM      30.44S
AURORA         CLEAR      4  -3  73 CALM      30.44R
LEXINGTON      CLEAR      5   0  78 CALM      30.38S
HOLDREGE       CLEAR      3  -3  74 E5        30.39R WCI  -6
HEBRON         CLEAR      9   0  68 E3        30.46S

...NEBRASKA PANHANDLE...

CITY           SKY/WX    TMP DP  RH WIND       PRES   REMARKS
CHADRON        MOCLDY    -4  -8  83 SW3       30.25F
ALLIANCE       CLEAR      1  -5  75 CALM      30.22F
SCOTTSBLUFF    CLEAR      6   0  76 E3        30.23S
SIDNEY         CLEAR      9   3  77 W9        30.23F WCI  -4

...WESTERN AND NORTH CENTRAL NEBRASKA...

CITY           SKY/WX    TMP DP  RH WIND       PRES   REMARKS
VALENTINE      CLEAR     -1  -6  79 SW6       30.33S WCI -13
AINSWORTH      CLEAR      2  -3  79 SW6       30.33S WCI  -9
ONEILL         CLEAR      1  -3  83 CALM      30.39S
BROKEN BOW     CLEAR      0  -6  76 CALM      30.36S
IMPERIAL         N/A      9   2  73 N7        30.30S WCI  -2
NORTH PLATTE   CLEAR      4  -3  73 CALM      30.34S
MCCOOK         CLEAR     13   2  61 E6        30.35S WCI   4

...EASTERN NEBRASKA...

CITY           SKY/WX    TMP DP  RH WIND       PRES   REMARKS
NORFOLK        CLEAR      1  -6  72 SW3       30.43R
SO SIOUX CITY  CLEAR      1  -5  75 CALM      30.49R
TEKAMAH        CLEAR      1  -6  72 W5        30.50R WCI  -9
COLUMBUS       CLEAR      0 -15  50 CALM      30.47R
ALBION         MOCLDY     1  -6  74 CALM      30.42S
OMAHA EPPLEY   CLEAR      6  -3  66 NE6       30.50R WCI  -4
OFFUTT AFB     CLEAR      6  -3  67 NE3       30.49R
MILLARD        CLEAR      9  -3  58 CALM      30.49R
LINCOLN        CLEAR      5  -3  69 N3        30.50R
NEBRASKA CITY  CLEAR      6  -4  62 NE5       30.48S WCI  -3
BEATRICE       CLEAR      4  -1  78 N6        30.47R WCI  -6
FALLS CITY     CLEAR      9  -3  58 NE3       30.49R

...NORTHERN KANSAS...

CITY           SKY/WX    TMP DP  RH WIND       PRES   REMARKS
GOODLAND       CLEAR     15   8  73 W13       30.29S WCI   1
HILL CITY      MOCLDY    14   5  67 VRB5      30.39R WCI   6
NORTON         PTSUNNY   10   1  67 E5        30.37R WCI   2
PHILLIPSBURG   CLEAR     14   7  73 NE6       30.43S WCI   5
SMITH CENTER   CLEAR     10   1  67 NE7       30.44R WCI   0
BELOIT         CLEAR      9   3  78 CALM      30.46R
HAYS           MOCLDY    18   0  45 W6        30.39R WCI   9
RUSSELL        CLOUDY    15   7  70 W7        30.39R WCI   5
CONCORDIA      CLEAR     12   3  67 NE5       30.46R WCI   4
SALINA         CLEAR     15   5  64 N6        30.46R WCI   6
TOPEKA         CLEAR     17   4  56 N10       30.48R WCI   5



USA.gov is the U.S. government's official web portal to all federal, state and local government web resources and services.